カタログに戻る

COSMOS 1275 DEB

LostPO
NORAD 42207·DEBRIS·🇷🇺 Russia

打ち上げ Jun 4, 1981 から Plesetsk Cosmodrome

Loading…

次のパス (今後24時間)

TLE

古いSource: Space-Track

元期: Oct 23, 2023, 10:53 UTC

1 42207U 81053TX  23296.45412330  .00002222  00000-0  27143-2 0  9993
2 42207  83.0558 351.8309 0208922 138.4458 223.2785 13.56591642 52032

AllMySatでCOSMOS 1275 DEBをリアルタイム追跡

Download on the App Store